Location: Newark
(35.6799°N, 139.7636°E)
Time: 21:20:31
(UTC+00:00)

Explorer 7 - Pass Details

Date: 16 December 2019
Orbit: 485 x 679 km, 50.3° (Epoch: 18 January)

Event Time Altitude Azimuth Distance (km) Brightness Sun altitude
Rises 07:20:05 0° 303° (WNW) 3,007 11.0 0.7°
Reaches altitude 10° 07:23:33 10° 328° (NNW) 2,111 9.9 0.1°
Maximum altitude 07:26:09 14° 0° (N) 1,852 9.2 -0.3°
Drops below altitude 10° 07:28:44 10° 32° (NNE) 2,118 9.3 -0.8°
Enters shadow 07:31:45 - 55° (NE) 2,881 9.8 -1.3°
Sets 07:32:14 0° 57° (ENE) 3,023 - -1.4°
